DECAYED

OBJECT K, 58265 (Decayed)

Orbit data source: Space-Track

You're viewing an uncataloged RSO

Recently launched and/or uncataloged RSOs may have evolving metadata. Metadata may include the following, but is not limited to: Owner, Manufacturer, Bus, Motor, and Mission.

OBJECT K, 58265 was a satellite in LEO that was launched on Sat, 11 Nov 2023 UTC via an FALCON 9 launch vehicle from the Air Force Western Test Range (AFWTR). Unknown objects in Earth's orbit typically refer to objects detected orbiting the Earth but have not yet been identified or cataloged. These objects could be anything from previously untracked satellites, spent rocket stages, debris from satellite collisions, or even natural meteoroids temporarily captured by Earth's gravity. This object's orbit decayed before it could be identified.

Not visible in the next 10 days
Identifier
58265, 2023-174K
Orbit
Decayed
Country
Flag of TBDTBD
Related business
Manufacturer
Endurosat
Mission
Decayed Commercial Communications
Bus & Motor
CUBESAT 6UXL, Unknown motor
Mass
8.8 kg wet, 8.8 kg dry
Launch date (UTC)
2023-11-11 (3 years ago)
Launch vehicle
FALCON 9
Launch site
Air Force Western Test Range (AFWTR)
Object type
Unknown
Shape & HBR
Box + 2 Pan, 0.2 m
Radar Cross Section
0.080 m², Medium (>0.1 m² and < 1m²)

Expand to show TLE details & history
Last TLE update: 8 months ago

TLE from 8 months ago
0 OBJECT K
1 58265U 23174K   26012.02976650  .11830383  24784-5  92194-3 0  9994
2 58265  97.3549 106.4248 0009711 292.0943  67.9325 16.40146198122105
Epoch: 2026-01-12T00:42Z
TLE epoch observation values (Epoch: 2026-01-12T00:42:51.825Z)
Latitude
-0.00005°
Longitude
-15.82345°
Altitude
166.284 km
Speed
7.808 km/s
True Right ascension
07h 05m 41s
True Declination
0° 00' 00"
Sunlit
Object was in full shadow at epoch
Visualization orbit readout
Latitude
Unknown
Longitude
Unknown
Altitude
Unknown
Speed
Unknown
Apparent Right ascension
Unknown
Apparent Declination
Unknown
Sunlit
N/A
Visualization observer readout
Local Sidereal Time
07:08:05
Azimuth
Unknown
Elevation
Unknown
Doppler factor
Unknown
Orbital elements
Apogee altitude
168.57 km
Perigee altitude
155.868 km
Semi-major axis
6,540.356 km
Eccentricity
0.00097
Inclination
97.3549°
RAAN
106.4248°
Arg. of periapsis
292.0943°
True anomaly
68.03567°
Mean anomaly
67.9325°
Eccentric anomaly
67.98408°
Mean motion
4.10337 °/min
Orbital period
87.73 mins
BSTAR
0.00092194
Loading maneuver chart data...
Computing Atmospheric mass density...
Loading historical data...
Loading historical data...
Loading historical data...
Loading historical data...
Loading historical data...
Loading historical data...
Loading historical data...

Documentation

Showing up to 5 results
|